EW2801 Weather Reports


time (UTC)temp
F
wind
direction
speed
knots
gust
knots
rain 1hr
in
rain 24hr
in
rain mn
in
humidity
%
barometer
mb
20260507105544 38 205 0.9 7.0 0.00 0.27 0.01 87 1012.9
20260507104025 38 173 2.6 5.2 0.01 0.27 0.01 88 1012.9
20260507102544 37 200 0.0 4.3 0.01 0.27 0.01 89 1012.9
20260507101020 37 194 0.0 6.1 0.01 0.27 0.01 90 1012.8
20260507095536 37 196 0.0 0.0 0.01 0.27 0.01 91 1012.8
20260507094059 37 196 0.0 0.0 0.00 0.26 0.00 90 1012.8
20260507092536 38 196 0.0 4.3 0.00 0.26 0.00 90 1012.8
20260507091032 38 196 0.0 4.3 0.00 0.26 0.00 90 1012.7
20260507085549 38 199 1.7 8.7 0.01 0.26 0.00 91 1012.3
20260507084031 38 194 2.6 5.2 0.02 0.26 0.00 92 1012.2
20260507082528 39 208 1.7 4.3 0.02 0.26 0.00 92 1012.2
20260507081045 39 201 0.9 4.3 0.03 0.26 0.00 91 1012.3
20260507075526 39 192 0.0 6.1 0.03 0.25 0.25 91 1012.3
20260507074044 39 204 3.5 7.0 0.05 0.25 0.25 91 1012.1
20260507072558 39 194 0.0 3.5 0.05 0.24 0.24 91 1012.0
20260507071055 39 198 0.0 1.7 0.06 0.23 0.23 90 1011.9
20260507065550 39 191 0.0 5.2 0.06 0.22 0.22 90 1011.7
20260507064030 39 196 2.6 6.1 0.05 0.20 0.20 90 1011.6
20260507062528 40 191 0.0 5.2 0.05 0.19 0.19 91 1011.4
20260507061024 40 200 0.0 0.0 0.04 0.17 0.17 91 1011.3
20260507055526 40 200 0.0 0.0 0.05 0.16 0.16 90 1011.2
20260507054044 40 200 0.0 0.0 0.04 0.15 0.15 90 1011.2
20260507052521 40 200 0.0 0.0 0.04 0.14 0.14 90 1011.2
20260507051038 40 200 0.0 4.3 0.06 0.13 0.13 89 1011.1
20260507045539 40 186 0.0 3.5 0.06 0.11 0.11 89 1011.0
20260507044037 40 171 0.0 0.9 0.06 0.11 0.11 88 1010.9
20260507042536 40 198 0.0 6.1 0.08 0.11 0.11 87 1011.2
20260507041103 40 190 4.3 9.6 0.04 0.07 0.07 84 1011.2
20260507035536 41 198 5.2 10.4 0.02 0.05 0.05 82 1010.7
20260507034034 43 197 0.0 7.0 0.03 0.05 0.05 81 1010.5
20260507032552 44 196 0.0 0.0 0.01 0.03 0.03 83 1010.1
20260507031031 44 196 0.0 0.0 0.02 0.03 0.03 81 1010.0
20260507025527 44 196 0.0 4.3 0.02 0.03 0.03 78 1010.0
20260507024026 45 196 1.7 6.1 0.01 0.02 0.02 75 1009.7
20260507022547 46 180 3.5 9.6 0.02 0.02 0.02 75 1009.7
20260507021023 46 208 3.5 8.7 0.01 0.01 0.01 73 1009.6
20260507015519 45 189 0.0 0.0 0.01 0.01 0.01 77 1009.6
20260507014037 45 189 0.0 6.1 0.01 0.01 0.01 76 1009.6
20260507012541 45 205 0.0 1.7 0.00 0.00 0.00 75 1009.6
20260507011037 45 208 1.7 7.0 0.00 0.00 0.00 71 1009.6
20260507005533 46 264 0.0 4.3 0.00 0.00 0.00 66 1009.6
20260507004035 46 288 0.0 3.5 0.00 0.00 0.00 69 1009.5
20260507002553 46 216 0.0 5.2 0.00 0.00 0.00 69 1009.3
20260507001029 47 177 1.7 5.2 0.00 0.00 0.00 68 1009.2
20260506235546 47 117 0.0 3.5 0.00 0.00 0.00 70 1009.1
20260506234027 47 285 0.0 3.5 0.00 0.00 0.00 69 1009.1
20260506232524 47 286 0.0 0.9 0.00 0.00 0.00 69 1009.1
20260506231021 47 273 0.0 4.3 0.00 0.00 0.00 69 1009.0
20260506225522 48 277 0.9 4.3 0.00 0.00 0.00 64 1008.9
20260506224040 47 207 0.0 5.2 0.00 0.00 0.00 63 1008.7
20260506222538 46 236 2.6 6.1 0.00 0.00 0.00 63 1008.7
20260506221035 46 198 4.3 7.8 0.00 0.00 0.00 61 1008.6
20260506215534 47 219 5.2 8.7 0.00 0.00 0.00 60 1008.3
20260506214032 49 195 2.6 5.2 0.00 0.00 0.00 58 1008.1
20260506212550 49 201 0.0 3.5 0.00 0.00 0.00 57 1008.1
20260506211026 49 345 0.0 4.3 0.00 0.00 0.00 58 1008.0
20260506205546 49 330 0.0 1.7 0.00 0.00 0.00 60 1007.9
20260506204025 49 276 0.0 2.6 0.00 0.00 0.00 62 1007.9
20260506202523 47 325 0.0 3.5 0.00 0.00 0.00 64 1007.7
20260506201025 48 334 0.0 3.5 0.00 0.00 0.00 65 1007.6
20260506195522 47 329 0.0 0.0 0.00 0.00 0.00 66 1007.6
20260506194021 46 330 0.0 3.5 0.00 0.00 0.00 66 1007.6
20260506192523 46 339 0.0 3.5 0.00 0.00 0.00 67 1007.6
20260506191020 46 278 0.0 4.3 0.00 0.00 0.00 66 1007.5
20260506185558 46 316 0.0 3.5 0.00 0.00 0.00 64 1007.5
20260506184035 46 318 0.0 4.3 0.00 0.00 0.00 66 1007.5
20260506182537 45 314 0.0 0.0 0.00 0.00 0.00 66 1007.3
20260506181033 45 299 0.0 1.7 0.00 0.00 0.00 67 1007.2
20260506175532 44 307 0.0 2.6 0.00 0.00 0.00 68 1007.1
20260506174033 44 229 0.0 1.7 0.00 0.00 0.00 70 1007.1
20260506172532 43 220 0.0 0.0 0.00 0.00 0.00 71 1007.0
20260506171029 42 215 0.0 0.9 0.00 0.00 0.00 71 1007.0
20260506165526 42 190 0.0 0.0 0.00 0.00 0.00 72 1006.9
20260506164027 41 190 0.0 0.0 0.00 0.00 0.00 73 1006.8
20260506162546 41 190 0.0 0.0 0.00 0.00 0.00 75 1006.6
20260506161023 39 190 0.0 0.0 0.00 0.00 0.00 79 1006.5
20260506155521 38 190 0.0 0.0 0.00 0.00 0.00 80 1006.5
20260506154038 38 190 0.0 0.0 0.00 0.00 0.00 80 1006.5
20260506152556 38 190 0.0 0.0 0.00 0.00 0.00 80 1006.5
20260506151051 38 190 0.0 0.0 0.00 0.00 0.00 80 1006.3
20260506145550 38 190 0.0 0.0 0.00 0.00 0.00 80 1006.2
20260506144026 38 190 0.0 0.0 0.00 0.00 0.00 80 1006.1
20260506142528 37 190 0.0 0.0 0.00 0.00 0.00 80 1006.1
20260506141024 37 190 0.0 0.0 0.00 0.00 0.00 80 1006.0
20260506135524 37 190 0.0 0.0 0.00 0.00 0.00 79 1006.1
20260506134021 37 190 0.0 0.0 0.00 0.00 0.00 79 1006.0
20260506132520 38 190 0.0 0.0 0.00 0.00 0.00 78 1006.0
20260506131035 38 190 0.0 0.0 0.00 0.00 0.00 77 1006.0
20260506125556 39 190 0.0 0.0 0.00 0.00 0.00 76 1005.9
20260506124032 39 190 0.0 0.0 0.00 0.00 0.00 75 1005.9
20260506122531 39 191 0.0 0.0 0.00 0.00 0.00 76 1005.7
20260506121033 39 191 0.0 0.0 0.00 0.00 0.00 76 1005.6
20260506115530 40 191 0.0 0.0 0.00 0.00 0.00 75 1005.5
20260506114029 40 188 0.0 5.2 0.00 0.00 0.00 75 1005.5
20260506112527 40 196 2.6 5.2 0.00 0.01 0.00 75 1005.5
20260506111028 40 167 0.0 7.0 0.00 0.01 0.00 74 1005.5